sat.trackr.live / text

‹ back to catalog

STARLINK-1272

NORAD 45386 · 2020-019AC

PAYLOAD ACTIVE UNKNOWN

§ Identity

Operator
Country
US
Launch date
2020-03-18
Launch site
AFETR
Launch vehicle
Mass (kg)
RCS (m²)

Purposes: comms

External: N2YO · Heavens-Above · Gunter

§ Orbital elements

Epoch: 2026-05-25T03:25:30.042048Z

Period
91.84 min
Inclination
53.0398°
Eccentricity
0.0008510
Mean motion
15.67905164 rev/d
Perigee alt
359.2 km
Apogee alt
370.6 km
Semi-major
6,743.0 km
B*
5.2469e-4
RAAN
95.6293°
Arg perigee
49.6468°
Mean anomaly
310.5289°
Rev number
34,248

§ Raw data

STARLINK-12721 45386U 20019AC  26145.14270882  .00058970  00000+0  52469-3 0  99952 45386  53.0398  95.6293 0008510  49.6468 310.5289 15.67905164342484

JSON: /api/v1/satellites/45386 · /tle

For live sub-satellite position, see the globe view (requires WebGL).

§ Visibility from observer

Set your observer location to see the next 7 days of passes ≥ 10°. The values pass through the URL so the page stays shareable.

No JS? Fill the form by hand. The geolocation button needs JavaScript.